QPF
0.00 0.00 0.00 0.00 0.00 0.00 0.00 0.00 0.00 0.00 0.00 0.00 0.00 0.00 0.00 0.00 0.00 0.00 0.00 0.00 0.00 0.00 0.00 0.00 0.00 0.00 0.00 0.00 0.00 0.00 0.00 0.00
0.00 0.00 0.00 0.00 0.00 0.00 0.00 0.00 0.00 0.00 0.00 0.00 0.00 0.00 0.00 0.00 0.00 0.00 0.00 0.00 0.00 0.00 0.00 0.00 0.00 0.00 0.00 0.00 0.00 0.00 0.00 0.00
0.00 0.00 0.00 0.00 0.00 0.00 0.00 0.00 0.00 0.00 0.00 0.00 0.00 0.00 0.00 0.00 0.00 0.00 0.00 0.00 0.00 0.00 0.00 0.00 0.00 0.00 0.00 0.00 0.00 0.00 0.00 0.00
0.00 0.00 0.00 0.00 0.00 0.00 0.00 0.00 0.00 0.00 0.00 0.00 0.00 0.00 0.00 0.00 0.00 0.00 0.00 0.00 0.00 0.00 0.00 0.00 0.00 0.00 0.00 0.00 0.00 0.00 0.00 0.00
0.00 0.00 0.00 0.00 0.00 0.00 0.00 0.00 0.00 0.00 0.00 0.00 0.00 0.00 0.00 0.00 0.00 0.00 0.00 0.00 0.00 0.00 0.00 0.00 0.00 0.00 0.00 0.00 0.00 0.00 0.00 0.00
0.00 0.00 0.00 0.00 0.00 0.00 0.00 0.00 0.00 0.00 0.00 0.00 0.00 0.00 0.00 0.00 0.00 0.00 0.00 0.00 0.00 0.00 0.00 0.00 0.00 0.00 0.00 0.00 0.00 0.00 0.00 0.00
0.00 0.00 0.00 0.00 0.00 0.00 0.00 0.00 0.00 0.00 0.00 0.00 0.00 0.00 0.00 0.00 0.00 0.00 0.00 0.00 0.00 0.00 0.00 0.00 0.00 0.00 0.00 0.00 0.00 0.00 0.00 0.00
0.00 0.00 0.00 0.00 0.00 0.00 0.00 0.00 0.00 0.00 0.00 0.00 0.00 0.00 0.00 0.00 0.00 0.00 0.00 0.00 0.00 0.00 0.00 0.00 0.00 0.00 0.00 0.00 0.00 0.00 0.00 0.00
0.00 0.00 0.00 0.00 0.00 0.00 0.00 0.00 0.00 0.00 0.00 0.00 0.00 0.00 0.00 0.00 0.00 0.00 0.00 0.00 0.00 0.00 0.00 0.00 0.00 0.00 0.00 0.00 0.00 0.00 0.00 0.00
0.00 0.00 0.00 0.00 0.00 0.00 0.00 0.00 0.00 0.00 0.00 0.00 0.00 0.00 0.00 0.00 0.00 0.00 0.00 0.00 0.00 0.00 0.00 0.00 0.00 0.00 0.00 0.00 0.00 0.00 0.00 0.00
0.00 0.00 0.00 0.00 0.00 0.00 0.00 0.00 0.00 0.00 0.00 0.00 0.00 0.00 0.00 0.00 0.00 0.00 0.00 0.00 0.00 0.00 0.00 0.00 0.00 0.00 0.00 0.00 0.00 0.00 0.00 0.00
0.00 0.00 0.00 0.00 0.00 0.00 0.00 0.00 0.00 0.00 0.00 0.00 0.00 0.00 0.00 0.00 0.00 0.00 0.00 0.00 0.00 0.00 0.00 0.00 0.00 0.00 0.00 0.00 0.00 0.00 0.00 0.00
0.00 0.00 0.00 0.00 0.00 0.00 0.00 0.00 0.00 0.00 0.00 0.00 0.00 0.00 0.00 0.00 0.00 0.00 0.00 0.00 0.00 0.00 0.00 0.00 0.00 0.00 0.00 0.00 0.00 0.00 0.00 0.00
0.00 0.00 0.00 0.00 0.00 0.00 0.00 0.00 0.00 0.00 0.00 0.00 0.00 0.00 0.00 0.00 0.00 0.00 0.00 0.00 0.00 0.00 0.00 0.00 0.00 0.00 0.00 0.00 0.00 0.00 0.00 0.00
0.00 0.00 0.00 0.00 0.00 0.00 0.00 0.00 0.00 0.00 0.00 0.00 0.00 0.00 0.00 0.00 0.00 0.00 0.00 0.00 0.00 0.00 0.00 0.00 0.00 0.00 0.00 0.00 0.00 0.00 0.00 0.00
0.00 0.00 0.00 0.00 0.00 0.00 0.00 0.00 0.00 0.00 0.00 0.00 0.00 0.00 0.00 0.00 0.00 0.00 0.00 0.00 0.00 0.00 0.00 0.00 0.00 0.00 0.00 0.00 0.00 0.00 0.00 0.00
0.00 0.00 0.00 0.00 0.00 0.00 0.00 0.00 0.00 0.00 0.00 0.00 0.00 0.00 0.00 0.00 0.00 0.00 0.00 0.00 0.00 0.00 0.00 0.00 0.00 0.00 0.00 0.00 0.00 0.00 0.00 0.00
0.00 0.00 0.00 0.00 0.00 0.00 0.00 0.00 0.00 0.00 0.00 0.00 0.00 0.00 0.00 0.00 0.00 0.00 0.00 0.00 0.00 0.00 0.00 0.00 0.00 0.00 0.00 0.00 0.00 0.00 0.00 0.00
0.00 0.00 0.00 0.00 0.00 0.00 0.00 0.00 0.00 0.00 0.00 0.00 0.00 0.00 0.00 0.00 0.00 0.00 0.00 0.00 0.00 0.00 0.00 0.00 0.00 0.00 0.00 0.00 0.00 0.00 0.00 0.00
MSLP
1015.52 1016.36 1017.07 1017.67 1018.47 1019.06 1019.49 1019.98 1020.56 1020.92 1020.92 1021.17 1021.30 1021.47 1021.72 1021.93 1022.21 1022.54 1022.66 1022.62 1022.40 1021.92 1021.74 1021.71 1021.22 1020.82 1020.46 1020.20 1019.89 1019.24 1018.26 1017.73
1015.45 1016.44 1017.28 1017.97 1018.66 1019.01 1019.52 1020.16 1020.59 1020.61 1020.67 1020.84 1021.15 1021.46 1021.97 1022.35 1022.62 1023.04 1023.11 1023.19 1022.98 1022.61 1022.20 1022.08 1021.64 1021.21 1021.17 1020.78 1020.38 1019.61 1018.52 1018.16
1015.58 1016.62 1017.42 1017.97 1018.59 1019.22 1019.53 1019.83 1020.35 1020.80 1020.93 1021.28 1021.69 1022.03 1022.47 1022.72 1022.86 1023.24 1023.47 1023.50 1023.39 1023.04 1022.78 1022.39 1022.14 1021.57 1021.69 1021.49 1021.12 1020.37 1019.40 1019.16
1015.43 1016.67 1017.47 1018.20 1018.68 1019.28 1019.74 1020.19 1020.61 1020.92 1021.32 1021.87 1022.21 1022.69 1022.74 1022.68 1023.00 1023.19 1023.84 1023.85 1023.78 1023.68 1023.37 1023.01 1022.76 1022.32 1022.10 1022.04 1021.89 1021.37 1020.38 1019.72
1014.63 1016.04 1017.13 1017.75 1018.63 1019.43 1019.99 1020.45 1020.96 1021.44 1021.65 1021.76 1021.96 1021.88 1022.28 1023.04 1023.41 1023.81 1023.76 1024.18 1024.22 1024.09 1023.84 1023.41 1023.04 1022.73 1022.69 1022.49 1022.15 1021.97 1021.49 1020.81
1014.23 1015.79 1016.89 1017.77 1018.92 1019.58 1020.22 1020.81 1021.43 1021.94 1022.03 1022.11 1022.16 1022.48 1022.95 1023.39 1023.52 1023.76 1023.87 1024.39 1024.66 1024.15 1023.78 1023.50 1023.35 1023.03 1023.28 1023.10 1022.75 1022.56 1022.49 1022.33
1014.43 1015.83 1016.74 1018.04 1019.15 1019.75 1020.24 1020.82 1021.63 1022.29 1022.39 1022.53 1022.70 1022.93 1023.30 1023.31 1023.82 1023.61 1023.73 1024.04 1024.17 1024.18 1023.72 1023.86 1023.81 1023.66 1023.77 1023.49 1023.40 1023.38 1023.26 1022.98
1014.11 1015.16 1016.40 1017.48 1018.63 1019.49 1020.21 1020.90 1021.78 1022.29 1022.86 1023.06 1023.29 1023.46 1023.65 1023.82 1023.85 1023.87 1023.72 1023.82 1024.15 1024.45 1023.93 1024.34 1024.22 1024.49 1024.35 1024.14 1023.90 1023.52 1023.28 1023.41
1013.91 1014.83 1015.83 1017.12 1018.44 1019.29 1020.02 1020.61 1021.65 1022.26 1023.12 1023.28 1023.52 1023.81 1023.90 1024.12 1024.31 1024.18 1024.17 1024.21 1024.66 1024.76 1024.72 1025.11 1025.17 1024.95 1024.58 1024.39 1023.84 1023.49 1023.35 1023.30
1013.45 1014.56 1015.73 1016.95 1018.21 1018.95 1019.79 1020.45 1021.73 1022.45 1023.11 1023.50 1023.82 1024.07 1024.18 1024.55 1024.59 1024.64 1024.44 1024.79 1025.22 1025.34 1025.48 1025.56 1025.48 1025.15 1024.86 1024.43 1024.15 1023.83 1023.63 1023.67
1013.39 1014.47 1015.80 1016.87 1017.87 1018.83 1019.83 1020.83 1021.97 1022.60 1023.25 1023.50 1023.82 1024.33 1024.69 1024.80 1024.73 1024.78 1024.97 1025.53 1025.73 1025.81 1025.86 1025.80 1025.59 1025.39 1025.21 1024.92 1024.71 1024.65 1024.44 1024.33
1013.64 1014.49 1015.83 1016.88 1018.30 1018.85 1020.00 1021.06 1022.24 1022.74 1023.16 1023.65 1024.17 1024.69 1024.95 1024.93 1025.07 1025.39 1025.86 1026.12 1026.23 1026.21 1026.21 1026.14 1026.18 1026.24 1026.04 1026.03 1026.09 1025.82 1025.45 1025.44
1014.27 1014.99 1015.90 1017.09 1018.07 1018.75 1019.96 1020.97 1022.14 1023.27 1023.57 1023.95 1024.53 1025.31 1025.25 1025.39 1025.84 1026.28 1026.64 1026.68 1026.68 1026.67 1026.62 1026.77 1027.13 1027.20 1027.48 1027.06 1026.96 1027.20 1026.94 1026.45
1014.11 1014.97 1015.96 1017.20 1017.84 1018.94 1019.61 1020.64 1021.57 1022.79 1023.67 1024.43 1024.73 1025.46 1026.03 1026.28 1026.75 1027.10 1027.43 1027.39 1027.66 1027.76 1027.97 1027.92 1028.08 1028.14 1028.15 1028.32 1028.18 1027.86 1027.71 1027.43
1012.65 1014.27 1015.58 1016.84 1017.42 1018.60 1019.49 1020.77 1021.34 1022.20 1023.35 1024.14 1025.25 1025.44 1025.68 1026.28 1026.73 1026.84 1027.33 1027.41 1027.94 1028.24 1028.43 1028.58 1028.54 1028.62 1028.65 1028.68 1028.60 1028.22 1028.00 1027.90
1010.66 1012.35 1013.91 1015.80 1017.00 1017.92 1019.04 1020.16 1021.05 1021.81 1022.74 1023.41 1024.50 1025.09 1025.32 1025.62 1026.09 1026.45 1026.57 1026.81 1027.57 1028.42 1028.55 1028.56 1028.58 1028.71 1028.58 1027.96 1028.08 1028.21 1028.01 1027.99
1009.32 1010.69 1011.99 1013.83 1015.35 1016.50 1017.90 1019.12 1020.17 1021.19 1022.28 1023.12 1023.65 1024.55 1024.94 1025.23 1025.61 1025.99 1026.29 1026.55 1026.83 1027.07 1027.54 1028.05 1028.37 1028.41 1029.15 1028.77 1027.68 1027.84 1028.06 1027.89
1008.37 1009.59 1011.03 1012.80 1014.24 1015.53 1016.91 1018.28 1019.72 1021.15 1022.11 1022.60 1023.35 1024.07 1024.42 1024.97 1025.42 1025.82 1026.11 1026.38 1026.79 1027.10 1027.42 1027.60 1027.93 1028.56 1029.27 1029.07 1028.40 1027.61 1027.67 1027.80
1008.62 1009.72 1011.15 1012.48 1013.85 1015.26 1016.64 1018.07 1019.70 1020.82 1021.59 1022.40 1023.03 1023.56 1024.06 1024.71 1025.19 1025.54 1025.99 1026.42 1026.75 1027.09 1027.45 1027.65 1028.00 1028.85 1029.42 1029.27 1028.66 1027.81 1027.91 1028.08
Thickness
5613 5606 5601 5596 5589 5583 5578 5573 5566 5561 5560 5556 5554 5552 5550 5546 5541 5536 5532 5530 5530 5530 5529 5527 5527 5528 5529 5529 5530 5534 5541 5543
5604 5596 5589 5584 5578 5574 5569 5561 5555 5554 5552 5550 5547 5543 5537 5531 5526 5520 5517 5514 5513 5513 5513 5513 5513 5514 5512 5512 5512 5517 5524 5523
5592 5584 5578 5574 5569 5563 5560 5556 5550 5544 5541 5536 5530 5525 5519 5514 5510 5505 5501 5499 5498 5498 5498 5498 5498 5499 5494 5493 5493 5496 5501 5500
5581 5572 5566 5561 5557 5550 5545 5540 5536 5531 5525 5518 5513 5508 5505 5503 5498 5495 5489 5487 5485 5484 5483 5482 5481 5481 5480 5477 5475 5476 5479 5481
5578 5567 5558 5554 5545 5537 5531 5527 5521 5514 5510 5508 5504 5506 5501 5489 5484 5479 5478 5474 5472 5470 5469 5470 5470 5469 5465 5464 5463 5461 5460 5461
5571 5558 5550 5543 5530 5524 5518 5512 5505 5499 5497 5494 5493 5489 5483 5477 5474 5471 5468 5463 5459 5461 5461 5460 5457 5456 5450 5448 5447 5444 5441 5438
5557 5546 5540 5528 5517 5511 5506 5501 5493 5486 5484 5481 5478 5474 5469 5468 5463 5463 5460 5456 5453 5451 5451 5447 5443 5440 5435 5433 5430 5426 5423 5422
5548 5540 5530 5520 5510 5502 5495 5489 5481 5476 5470 5467 5464 5461 5458 5455 5454 5453 5452 5449 5445 5439 5440 5433 5430 5423 5420 5418 5416 5414 5412 5408
5540 5534 5525 5512 5500 5493 5487 5482 5473 5466 5458 5456 5453 5450 5448 5444 5441 5441 5438 5437 5431 5427 5424 5417 5413 5410 5409 5406 5406 5404 5402 5400
5533 5525 5515 5503 5493 5486 5480 5474 5463 5455 5450 5446 5443 5439 5436 5432 5429 5427 5427 5422 5417 5414 5409 5405 5401 5400 5398 5397 5395 5394 5392 5389
5527 5518 5505 5495 5488 5479 5470 5462 5452 5446 5441 5439 5434 5428 5423 5421 5421 5418 5414 5409 5405 5402 5398 5395 5393 5391 5388 5387 5385 5381 5380 5378
5517 5510 5497 5488 5472 5472 5461 5452 5439 5437 5434 5429 5423 5417 5414 5413 5411 5406 5400 5397 5394 5391 5389 5387 5383 5379 5377 5374 5369 5368 5367 5364
5484 5495 5488 5470 5469 5465 5454 5445 5434 5424 5420 5418 5412 5403 5403 5402 5397 5392 5387 5385 5383 5381 5379 5376 5371 5368 5363 5362 5359 5353 5351 5353
5479 5481 5472 5457 5463 5451 5448 5439 5430 5418 5411 5404 5402 5394 5388 5386 5381 5379 5375 5374 5371 5369 5365 5362 5359 5356 5353 5348 5345 5344 5341 5341
5492 5473 5464 5450 5452 5444 5438 5425 5422 5414 5404 5398 5388 5386 5385 5379 5373 5372 5369 5367 5363 5359 5356 5353 5350 5346 5343 5340 5338 5337 5335 5333
5504 5488 5473 5453 5445 5441 5432 5422 5414 5408 5401 5396 5387 5382 5380 5377 5372 5368 5366 5364 5358 5352 5348 5346 5343 5339 5337 5338 5335 5331 5330 5328
5504 5495 5483 5465 5451 5444 5432 5421 5413 5404 5396 5390 5387 5380 5376 5372 5369 5366 5363 5360 5357 5353 5349 5343 5337 5334 5328 5328 5331 5327 5323 5322
5503 5494 5481 5464 5451 5442 5431 5421 5408 5396 5389 5388 5381 5376 5372 5368 5364 5361 5358 5355 5351 5347 5343 5340 5335 5328 5321 5321 5322 5323 5321 5317
5490 5480 5468 5457 5446 5436 5426 5415 5399 5390 5387 5380 5376 5372 5368 5364 5360 5357 5353 5349 5345 5341 5336 5333 5328 5319 5314 5313 5314 5315 5312 5307